TimeCST,TemperatureF,Dew PointF,Humidity,Sea Level PressureIn,VisibilityMPH,Wind Direction,Wind SpeedMPH,Gust SpeedMPH,PrecipitationIn,Events,Conditions,WindDirDegrees,DateUTC
12:15 AM,30.4,26.6,86,29.66,10.0,SW,9.2,-,N/A,Snow,Light Snow,220,2014-01-17 06:15:00
12:35 AM,30.2,27.5,90,29.66,10.0,SW,10.4,-,N/A,,Overcast,220,2014-01-17 06:35:00
12:55 AM,30.2,28.0,92,29.66,10.0,SW,11.5,-,N/A,,Overcast,230,2014-01-17 06:55:00
1:15 AM,30.9,27.5,87,29.66,10.0,WSW,12.7,-,N/A,,Overcast,240,2014-01-17 07:15:00
1:35 AM,29.3,26.1,88,29.68,10.0,North,12.7,-,N/A,,Overcast,350,2014-01-17 07:35:00
1:55 AM,24.8,19.6,81,29.70,5.0,NW,17.3,-,N/A,Snow,Light Snow,320,2014-01-17 07:55:00
2:15 AM,24.3,20.1,84,29.71,7.0,NW,23.0,27.6,N/A,Snow,Light Snow,320,2014-01-17 08:15:00
2:35 AM,19.9,14.7,80,29.74,10.0,WNW,16.1,27.6,N/A,,Overcast,290,2014-01-17 08:35:00
2:55 AM,17.8,12.4,79,29.75,10.0,WNW,20.7,26.5,N/A,,Overcast,290,2014-01-17 08:55:00
3:15 AM,16.3,11.5,81,29.76,7.0,WNW,17.3,25.3,N/A,,Overcast,290,2014-01-17 09:15:00
3:35 AM,15.6,10.2,79,29.77,7.0,WNW,17.3,25.3,N/A,Snow,Light Snow,290,2014-01-17 09:35:00
3:55 AM,15.3,10.0,80,29.78,10.0,West,13.8,-,N/A,Snow,Light Snow,280,2014-01-17 09:55:00
4:15 AM,14.7,10.0,82,29.79,5.0,WNW,15.0,23.0,N/A,Snow,Light Snow,290,2014-01-17 10:15:00
4:35 AM,14.0,9.3,82,29.79,7.0,West,16.1,-,N/A,Snow,Light Snow,280,2014-01-17 10:35:00
4:55 AM,13.1,8.4,82,29.80,7.0,West,13.8,18.4,N/A,Snow,Light Snow,280,2014-01-17 10:55:00
5:15 AM,12.2,6.3,77,29.80,10.0,WNW,11.5,-,N/A,,Mostly Cloudy,290,2014-01-17 11:15:00
5:35 AM,11.8,5.9,77,29.81,10.0,WNW,10.4,-,N/A,,Scattered Clouds,290,2014-01-17 11:35:00
5:55 AM,12.0,6.6,79,29.82,10.0,WNW,8.1,-,N/A,,Mostly Cloudy,290,2014-01-17 11:55:00
6:15 AM,12.0,6.1,77,29.83,10.0,WNW,9.2,-,N/A,,Overcast,290,2014-01-17 12:15:00
6:35 AM,11.1,5.0,76,29.83,10.0,WNW,6.9,-,N/A,,Mostly Cloudy,290,2014-01-17 12:35:00
6:55 AM,11.3,7.2,83,29.84,2.5,West,8.1,-,N/A,Snow,Light Snow,260,2014-01-17 12:55:00
7:15 AM,11.1,6.8,83,29.85,3.0,West,9.2,-,N/A,Snow,Light Snow,270,2014-01-17 13:15:00
7:35 AM,10.4,5.9,82,29.86,1.5,West,12.7,-,N/A,Snow,Light Snow,270,2014-01-17 13:35:00
7:55 AM,10.0,4.8,79,29.87,4.0,West,15.0,-,N/A,Snow,Light Snow,260,2014-01-17 13:55:00
8:15 AM,10.0,4.8,79,29.87,5.0,West,16.1,19.6,N/A,,Haze,270,2014-01-17 14:15:00
8:35 AM,9.9,3.9,77,29.88,5.0,West,15.0,-,N/A,,Haze,270,2014-01-17 14:35:00
8:55 AM,9.9,4.1,78,29.88,4.0,West,16.1,20.7,N/A,,Haze,280,2014-01-17 14:55:00
9:15 AM,9.1,2.8,76,29.89,10.0,West,11.5,15.0,N/A,,Mostly Cloudy,280,2014-01-17 15:15:00
9:35 AM,9.5,2.8,74,29.90,10.0,West,12.7,-,N/A,,Scattered Clouds,270,2014-01-17 15:35:00
9:55 AM,9.9,2.7,73,29.91,10.0,West,15.0,-,N/A,,Mostly Cloudy,270,2014-01-17 15:55:00
10:15 AM,10.0,2.7,72,29.93,10.0,West,10.4,19.6,N/A,,Overcast,280,2014-01-17 16:15:00
10:35 AM,10.6,3.2,72,29.93,10.0,West,16.1,-,N/A,,Overcast,260,2014-01-17 16:35:00
10:55 AM,10.8,3.0,71,29.92,7.0,West,13.8,21.9,N/A,,Overcast,270,2014-01-17 16:55:00
11:15 AM,11.5,3.7,71,29.91,10.0,West,15.0,-,N/A,,Overcast,260,2014-01-17 17:15:00
11:35 AM,11.3,3.7,72,29.91,7.0,West,12.7,19.6,N/A,,Overcast,280,2014-01-17 17:35:00
11:55 AM,12.2,3.7,69,29.91,10.0,WSW,13.8,-,N/A,,Overcast,250,2014-01-17 17:55:00
12:15 PM,11.3,3.6,71,29.91,7.0,West,13.8,-,N/A,,Overcast,270,2014-01-17 18:15:00
12:35 PM,11.7,5.2,75,29.90,2.5,West,13.8,-,N/A,Snow,Light Snow,270,2014-01-17 18:35:00
12:55 PM,11.7,3.6,70,29.90,7.0,West,15.0,-,N/A,,Overcast,260,2014-01-17 18:55:00
1:15 PM,11.7,4.3,72,29.91,7.0,WSW,15.0,-,N/A,,Overcast,250,2014-01-17 19:15:00
1:35 PM,12.0,5.5,75,29.91,3.0,West,11.5,-,N/A,Snow,Light Snow,280,2014-01-17 19:35:00
1:55 PM,12.6,5.4,73,29.93,7.0,West,13.8,-,N/A,,Overcast,260,2014-01-17 19:55:00
2:15 PM,12.7,5.4,72,29.94,4.0,West,13.8,-,N/A,Snow,Light Snow,270,2014-01-17 20:15:00
2:35 PM,12.7,5.7,74,29.94,5.0,West,13.8,-,N/A,,Haze,260,2014-01-17 20:35:00
2:55 PM,13.1,5.9,73,29.95,7.0,West,12.7,-,N/A,,Overcast,260,2014-01-17 20:55:00
3:15 PM,13.1,7.0,77,29.96,7.0,West,10.4,-,N/A,,Overcast,260,2014-01-17 21:15:00
3:35 PM,13.1,8.2,81,29.97,2.0,West,11.5,-,N/A,Snow,Light Snow,260,2014-01-17 21:35:00
3:55 PM,13.1,8.4,82,29.98,2.5,West,10.4,-,N/A,Snow,Light Snow,260,2014-01-17 21:55:00
4:15 PM,13.1,8.4,82,29.98,4.0,West,11.5,-,N/A,Snow,Light Snow,260,2014-01-17 22:15:00
4:35 PM,13.1,7.5,78,29.98,10.0,West,10.4,-,N/A,,Overcast,260,2014-01-17 22:35:00
4:55 PM,13.1,7.5,78,29.99,5.0,West,10.4,-,N/A,Snow,Light Snow,260,2014-01-17 22:55:00
5:15 PM,13.1,7.7,79,29.99,7.0,West,11.5,-,N/A,Snow,Light Snow,260,2014-01-17 23:15:00
5:35 PM,13.1,7.5,78,30.00,10.0,West,13.8,-,N/A,Snow,Light Snow,260,2014-01-17 23:35:00
5:55 PM,13.1,7.7,79,30.00,7.0,West,11.5,-,N/A,Snow,Light Snow,260,2014-01-17 23:55:00
6:15 PM,13.1,7.7,79,30.00,7.0,West,13.8,-,N/A,Snow,Light Snow,260,2014-01-18 00:15:00
6:35 PM,13.5,7.7,78,30.00,10.0,West,10.4,-,N/A,Snow,Light Snow,260,2014-01-18 00:35:00
6:55 PM,13.6,8.2,79,30.00,10.0,WSW,11.5,-,N/A,Snow,Light Snow,250,2014-01-18 00:55:00
7:15 PM,13.8,8.6,80,30.01,10.0,West,12.7,-,N/A,Snow,Light Snow,260,2014-01-18 01:15:00
7:35 PM,13.8,8.2,78,30.01,10.0,West,13.8,20.7,N/A,Snow,Light Snow,260,2014-01-18 01:35:00
7:55 PM,13.6,8.6,80,30.01,5.0,West,13.8,-,N/A,Snow,Light Snow,270,2014-01-18 01:55:00
8:15 PM,13.6,8.2,79,30.01,10.0,West,10.4,19.6,N/A,Snow,Light Snow,260,2014-01-18 02:15:00
8:35 PM,13.6,8.6,80,30.00,10.0,WSW,8.1,-,N/A,Snow,Light Snow,250,2014-01-18 02:35:00
8:55 PM,13.6,9.5,84,30.00,7.0,WSW,9.2,-,N/A,Snow,Light Snow,240,2014-01-18 02:55:00
9:15 PM,13.8,9.1,82,30.01,10.0,West,11.5,-,N/A,Snow,Light Snow,260,2014-01-18 03:15:00
9:35 PM,14.0,9.1,81,30.01,10.0,West,9.2,-,N/A,Snow,Light Snow,260,2014-01-18 03:35:00
9:55 PM,14.0,9.5,82,30.01,7.0,West,9.2,-,N/A,Snow,Light Snow,260,2014-01-18 03:55:00
10:15 PM,14.0,9.5,82,30.00,10.0,West,9.2,-,N/A,Snow,Light Snow,260,2014-01-18 04:15:00
10:35 PM,14.0,8.8,80,30.00,10.0,West,12.7,-,N/A,Snow,Light Snow,260,2014-01-18 04:35:00
10:55 PM,14.0,9.1,81,29.99,10.0,West,10.4,-,N/A,Snow,Light Snow,260,2014-01-18 04:55:00
11:15 PM,14.0,9.3,82,29.98,10.0,West,10.4,-,N/A,Snow,Light Snow,260,2014-01-18 05:15:00
11:35 PM,14.0,9.0,80,29.98,10.0,WSW,8.1,-,N/A,,Overcast,250,2014-01-18 05:35:00
11:55 PM,14.4,9.3,80,29.98,10.0,WSW,9.2,-,N/A,,Overcast,240,2014-01-18 05:55:00